• Em Portugal
  • Lista de países
  • Para 7 dias
  • Temperatura da água
  • Mapas de satélite
  • Mapa do tempo
  • Widgets de tempo
  • user-avatar
    Iniciar Sessão

    Previsão horária em Pustkowko

    Hoje, 18 Outubro, Quinta-feira

    Tempo Temperatura Precipitação Vento Pressão Humidade
    00:00 +14°C° 0 mm 2 m/s 763 mmHg 71%
    01:00 +13°C° 0 mm 2 m/s 763 mmHg 72%
    02:00 +13°C° 0 mm 2 m/s 762 mmHg 73%
    03:00 +13°C° 0 mm 2 m/s 762 mmHg 74%
    04:00 +12°C° 0 mm 1 m/s 762 mmHg 75%
    05:00 +12°C° 0 mm 1 m/s 762 mmHg 76%
    06:00 +12°C° 0 mm 1 m/s 762 mmHg 77%
    07:00 +12°C° 0 mm 1 m/s 762 mmHg 78%
    08:00 +14°C° 0 mm 1 m/s 762 mmHg 72%
    09:00 +15°C° 0 mm 1 m/s 762 mmHg 66%
    10:00 +17°C° 0 mm 2 m/s 762 mmHg 59%
    11:00 +18°C° 0 mm 2 m/s 762 mmHg 58%
    12:00 +19°C° 0 mm 2 m/s 762 mmHg 57%
    13:00 +19°C° 0 mm 2 m/s 762 mmHg 56%
    14:00 +19°C° 0 mm 3 m/s 762 mmHg 62%
    15:00 +18°C° 0 mm 3 m/s 762 mmHg 67%
    16:00 +17°C° 0 mm 3 m/s 762 mmHg 73%
    17:00 +16°C° 0 mm 3 m/s 763 mmHg 79%
    18:00 +14°C° 0 mm 3 m/s 763 mmHg 85%
    19:00 +13°C° 0 mm 3 m/s 763 mmHg 91%
    20:00 +12°C° 0 mm 3 m/s 764 mmHg 89%
    21:00 +12°C° 0 mm 3 m/s 764 mmHg 88%
    22:00 +12°C° 0 mm 3 m/s 764 mmHg 86%
    23:00 +12°C° 0 mm 3 m/s 764 mmHg 86%

    Amanhã, 19 Outubro, Sexta-feira

    Tempo Temperatura Precipitação Vento Pressão Humidade
    00:00 +11°C° 0 mm 3 m/s 765 mmHg 86%
    01:00 +11°C° 0 mm 3 m/s 765 mmHg 86%
    02:00 +10°C° 0 mm 3 m/s 765 mmHg 87%
    03:00 +10°C° 0 mm 2 m/s 765 mmHg 88%
    04:00 +10°C° 0 mm 2 m/s 765 mmHg 89%
    05:00 +9°C° 0 mm 2 m/s 765 mmHg 89%
    06:00 +9°C° 0 mm 2 m/s 766 mmHg 90%
    07:00 +9°C° 0 mm 2 m/s 766 mmHg 91%
    08:00 +10°C° 0 mm 2 m/s 766 mmHg 84%
    09:00 +13°C° 0 mm 2 m/s 766 mmHg 77%
    10:00 +14°C° 0 mm 2 m/s 767 mmHg 70%
    11:00 +15°C° 0 mm 2 m/s 767 mmHg 66%
    12:00 +15°C° 0 mm 2 m/s 767 mmHg 63%
    13:00 +16°C° 0 mm 2 m/s 767 mmHg 59%
    14:00 +15°C° 0 mm 2 m/s 767 mmHg 62%
    15:00 +13°C° 0 mm 3 m/s 767 mmHg 65%
    16:00 +13°C° 0 mm 3 m/s 767 mmHg 69%
    17:00 +12°C° 0 mm 2 m/s 767 mmHg 73%
    18:00 +10°C° 0 mm 2 m/s 767 mmHg 78%
    19:00 +9°C° 0 mm 2 m/s 767 mmHg 83%
    20:00 +9°C° 0 mm 2 m/s 768 mmHg 84%
    21:00 +8°C° 0 mm 2 m/s 768 mmHg 85%
    22:00 +8°C° 0 mm 2 m/s 768 mmHg 87%
    23:00 +8°C° 0 mm 2 m/s 768 mmHg 88%

    Depois de amanhã, 20 Outubro, Sábado

    Tempo Temperatura Precipitação Vento Pressão Humidade
    00:00 +8°C° 0 mm 2 m/s 768 mmHg 88%
    01:00 +8°C° 0 mm 2 m/s 768 mmHg 89%
    02:00 +8°C° 0 mm 3 m/s 768 mmHg 90%
    03:00 +8°C° 0 mm 3 m/s 768 mmHg 90%
    04:00 +8°C° 0 mm 3 m/s 768 mmHg 90%
    05:00 +8°C° 0 mm 3 m/s 769 mmHg 90%
    06:00 +8°C° 0 mm 3 m/s 769 mmHg 90%
    07:00 +8°C° 0 mm 3 m/s 769 mmHg 89%
    08:00 +8°C° 0 mm 4 m/s 769 mmHg 83%
    09:00 +10°C° 0 mm 4 m/s 769 mmHg 77%
    10:00 +10°C° 0 mm 5 m/s 770 mmHg 71%
    11:00 +12°C° 0 mm 5 m/s 770 mmHg 69%
    12:00 +12°C° 0 mm 5 m/s 770 mmHg 66%
    13:00 +13°C° 0 mm 6 m/s 770 mmHg 63%
    14:00 +12°C° 0 mm 5 m/s 770 mmHg 66%
    15:00 +12°C° 0 mm 5 m/s 769 mmHg 69%
    16:00 +10°C° 0 mm 5 m/s 769 mmHg 72%
    17:00 +10°C° 0 mm 5 m/s 769 mmHg 75%
    18:00 +10°C° 0 mm 5 m/s 769 mmHg 77%
    19:00 +10°C° 0 mm 5 m/s 770 mmHg 80%
    20:00 +10°C° 0 mm 5 m/s 770 mmHg 82%
    21:00 +10°C° 0 mm 5 m/s 770 mmHg 83%
    22:00 +11°C° 0 mm 4 m/s 770 mmHg 85%
    23:00 +11°C° 0 mm 4 m/s 770 mmHg 87%

    21 Outubro, Domingo

    Tempo Temperatura Precipitação Vento Pressão Humidade
    00:00 +10°C° 0 mm 4 m/s 770 mmHg 89%
    01:00 +10°C° 0 mm 3 m/s 770 mmHg 91%
    02:00 +10°C° 0 mm 3 m/s 770 mmHg 92%
    03:00 +10°C° 0 mm 3 m/s 770 mmHg 93%
    04:00 +10°C° 0 mm 3 m/s 769 mmHg 93%
    05:00 +8°C° 0 mm 4 m/s 769 mmHg 94%
    06:00 +8°C° 0 mm 4 m/s 769 mmHg 95%
    07:00 +8°C° 0 mm 4 m/s 769 mmHg 96%
    08:00 +10°C° 0 mm 4 m/s 769 mmHg 92%
    09:00 +10°C° 0 mm 5 m/s 769 mmHg 88%
    10:00 +12°C° 0 mm 5 m/s 769 mmHg 85%
    11:00 +12°C° 0 mm 5 m/s 769 mmHg 80%
    12:00 +13°C° 0 mm 5 m/s 769 mmHg 74%
    13:00 +14°C° 0 mm 5 m/s 768 mmHg 69%
    14:00 +14°C° 0 mm 4 m/s 768 mmHg 68%
    15:00 +13°C° 0 mm 4 m/s 768 mmHg 68%
    16:00 +13°C° 0 mm 4 m/s 768 mmHg 67%
    17:00 +13°C° 0 mm 4 m/s 767 mmHg 67%
    18:00 +12°C° 0 mm 4 m/s 767 mmHg 68%
    19:00 +12°C° 0 mm 4 m/s 767 mmHg 68%
    20:00 +11°C° 0 mm 4 m/s 767 mmHg 66%
    21:00 +10°C° 0 mm 5 m/s 766 mmHg 63%
    22:00 +10°C° 0 mm 5 m/s 766 mmHg 61%
    23:00 +10°C° 0 mm 5 m/s 766 mmHg 59%

    22 Outubro, Segunda-feira

    Tempo Temperatura Precipitação Vento Pressão Humidade
    00:00 +10°C° 0 mm 5 m/s 765 mmHg 58%
    01:00 +10°C° 0 mm 5 m/s 765 mmHg 57%
    02:00 +10°C° 0 mm 6 m/s 765 mmHg 56%
    03:00 +10°C° 0 mm 6 m/s 764 mmHg 56%
    04:00 +10°C° 0 mm 6 m/s 764 mmHg 55%
    05:00 +10°C° 0.3 mm 6 m/s 764 mmHg 61%
    06:00 +10°C° 0.3 mm 6 m/s 764 mmHg 66%
    07:00 +9°C° 0.3 mm 5 m/s 764 mmHg 71%
    08:00 +10°C° 0.1 mm 5 m/s 765 mmHg 72%
    09:00 +10°C° 0.1 mm 6 m/s 765 mmHg 74%
    10:00 +11°C° 0.1 mm 6 m/s 765 mmHg 76%
    11:00 +11°C° 0 mm 6 m/s 765 mmHg 71%
    12:00 +13°C° 0 mm 6 m/s 765 mmHg 67%
    13:00 +13°C° 0 mm 6 m/s 765 mmHg 63%
    14:00 +13°C° 0 mm 6 m/s 765 mmHg 63%
    15:00 +11°C° 0 mm 7 m/s 765 mmHg 64%
    16:00 +10°C° 0 mm 7 m/s 765 mmHg 65%
    17:00 +10°C° 0 mm 7 m/s 765 mmHg 64%
    18:00 +9°C° 0 mm 6 m/s 765 mmHg 63%
    19:00 +9°C° 0 mm 6 m/s 765 mmHg 62%
    20:00 +8°C° 0.1 mm 6 m/s 765 mmHg 64%
    21:00 +8°C° 0.1 mm 7 m/s 765 mmHg 67%
    22:00 +8°C° 0.1 mm 7 m/s 765 mmHg 69%
    23:00 +8°C° 0.2 mm 7 m/s 764 mmHg 70%

    23 Outubro, Terça-feira

    Tempo Temperatura Precipitação Vento Pressão Humidade
    00:00 +6°C° 0.2 mm 7 m/s 764 mmHg 72%
    01:00 +6°C° 0.2 mm 7 m/s 763 mmHg 74%
    02:00 +6°C° 0.3 mm 7 m/s 763 mmHg 75%
    03:00 +6°C° 0.3 mm 7 m/s 762 mmHg 76%
    04:00 +6°C° 0.3 mm 7 m/s 761 mmHg 77%
    05:00 +7°C° 0.4 mm 6 m/s 761 mmHg 79%
    06:00 +7°C° 0.4 mm 6 m/s 760 mmHg 81%
    07:00 +7°C° 0.4 mm 6 m/s 759 mmHg 83%
    08:00 +6°C° 1.5 mm 7 m/s 758 mmHg 82%
    09:00 +6°C° 1.5 mm 8 m/s 758 mmHg 81%
    10:00 +6°C° 1.5 mm 9 m/s 757 mmHg 80%
    11:00 +6°C° 0.9 mm 8 m/s 757 mmHg 81%
    12:00 +6°C° 0.9 mm 8 m/s 756 mmHg 82%
    13:00 +6°C° 0.9 mm 7 m/s 755 mmHg 83%
    14:00 +7°C° 0.3 mm 6 m/s 755 mmHg 83%
    15:00 +8°C° 0.3 mm 6 m/s 755 mmHg 83%
    16:00 +8°C° 0.3 mm 5 m/s 755 mmHg 83%
    17:00 +7°C° 0.2 mm 5 m/s 755 mmHg 83%
    18:00 +6°C° 0.2 mm 4 m/s 755 mmHg 83%
    19:00 +6°C° 0.2 mm 4 m/s 756 mmHg 83%
    20:00 +6°C° 0.1 mm 4 m/s 756 mmHg 82%
    21:00 +5°C° 0.1 mm 4 m/s 756 mmHg 81%
    22:00 +5°C° 0.1 mm 4 m/s 757 mmHg 81%
    23:00 +5°C° 0 mm 4 m/s 757 mmHg 80%
    Mostrar mais